Temp
11 10 10 9 9 9 8 8 8 8 9 10 12 14 15 15 16 16 16 16 15 15 16 15 14 15 15 16 16 17 17 18 17 17 16 16 15 15 16 15 15 16 16 16 16 15 14
10 9 9 8 8 8 8 8 8 9 10 11 14 15 15 16 16 16 16 16 15 15 15 14 14 15 15 17 17 17 17 17 17 17 16 15 15 15 15 15 15 15 15 14 14 15 15
9 9 8 8 8 8 8 7 8 8 8 9 12 15 16 16 16 16 16 16 16 15 14 14 14 14 14 16 16 16 16 16 16 16 15 15 15 15 14 15 15 15 14 14 15 16 16
9 8 8 8 7 7 7 7 7 7 8 8 11 15 15 16 16 16 16 16 16 15 14 14 14 14 14 16 16 16 16 16 16 16 15 15 15 14 14 14 15 15 14 15 18 15 17
7 7 7 7 7 7 7 7 7 7 7 7 10 13 15 16 16 16 17 16 15 14 14 14 14 14 15 15 15 16 16 16 16 15 15 15 15 13 14 13 14 13 14 14 15 15 16
7 7 7 7 7 7 7 7 7 7 7 8 11 13 14 15 15 16 16 15 14 14 13 13 13 14 15 16 16 16 15 16 15 14 14 14 11 12 11 12 15 15 14 14 14 17 15
7 7 6 6 6 6 6 6 6 6 7 7 10 13 14 14 15 15 16 15 12 13 13 15 13 15 15 15 16 15 16 16 15 14 14 13 13 13 13 12 15 16 15 15 14 16 16
6 6 6 6 6 6 6 6 6 6 6 7 10 13 14 14 14 15 14 10 10 10 10 12 11 12 14 16 16 15 16 14 14 14 13 13 12 14 14 14 13 13 14 13 14 14 13
6 6 6 6 6 6 6 6 6 6 6 7 12 13 14 14 14 13 11 10 10 10 9 12 14 15 15 15 15 15 14 13 14 13 12 13 15 15 15 16 14 14 14 13 14 15 14
6 6 6 6 6 6 5 5 6 6 6 9 11 12 12 13 13 11 10 10 11 11 10 15 15 15 15 14 14 15 15 15 14 14 13 12 13 15 14 14 14 13 13 14 14 14 12
5 5 6 6 5 5 5 5 5 6 7 10 10 10 11 11 11 9 9 11 11 11 11 16 15 15 14 14 14 14 14 15 14 15 14 14 16 15 14 14 14 14 15 14 14 13 12
5 5 5 5 5 5 5 5 5 6 9 11 11 11 11 11 10 10 10 11 11 10 10 15 15 15 15 14 14 13 14 14 14 13 12 12 13 15 14 15 13 16 16 13 11 11 9
5 5 5 5 5 5 5 5 5 7 9 11 11 11 10 10 9 10 10 10 9 9 14 14 13 13 13 15 15 13 13 12 13 12 12 13 13 14 15 15 15 15 13 10 10 9 11
5 5 5 5 4 4 4 5 5 6 9 11 11 11 10 10 10 10 10 10 12 13 13 13 13 12 13 12 15 13 12 11 11 12 10 10 13 14 14 14 14 12 12 10 13 10 12
5 5 5 4 4 4 4 5 5 8 10 11 11 11 11 10 10 10 8 7 10 12 12 11 12 13 12 13 12 12 12 12 12 11 13 10 11 14 13 14 14 14 12 13 13 11 8
5 5 4 4 4 4 4 4 5 8 10 11 11 10 11 11 11 11 7 10 11 11 11 11 12 12 12 10 11 12 12 11 9 10 11 11 11 13 14 14 13 13 13 12 10 12 12
4 4 4 4 3 4 4 4 5 7 10 10 10 7 11 11 11 6 7 9 11 11 11 11 11 10 10 9 10 10 11 8 7 8 8 11 10 12 13 11 12 11 11 12 11 10 12
4 4 4 3 3 3 3 4 5 7 9 9 7 8 10 11 7 4 7 8 10 9 8 10 9 9 8 8 7 9 10 7 6 6 6 8 7 8 11 11 12 13 12 11 10 12 9
4 4 3 3 3 3 3 4 4 7 8 7 4 4 10 10 6 5 6 8 8 7 6 7 8 7 6 7 7 7 6 6 5 6 6 6 7 7 10 11 11 12 12 12 10 10 10
3 3 3 3 3 3 3 4 4 7 8 8 3 6 3 2 1 5 5 5 6 6 5 6 5 5 5 4 6 5 5 6 5 6 8 8 7 7 8 9 9 9 10 10 10 9 9
3 3 3 3 3 3 3 4 6 7 8 8 -1 1 2 2 2 2 4 4 4 4 5 4 5 4 4 3 3 3 4 4 5 5 4 5 3 5 6 6 6 7 8 8 8 9 10
3 3 3 3 3 3 3 3 5 6 7 3 0 2 -0 0 2 2 2 2 3 3 4 4 3 3 3 3 3 2 2 2 2 3 3 4 3 4 4 6 7 8 8 7 7 7 8
3 3 3 2 2 2 2 3 3 5 6 2 1 1 0 1 1 2 1 2 3 2 4 4 3 2 2 3 2 2 2 3 3 2 2 2 2 2 2 4 5 5 3 4 3 3 4
3 2 2 2 2 2 2 2 3 3 4 3 1 1 0 1 1 2 2 2 2 2 2 2 2 2 3 2 1 1 0 1 1 2 2 0 1 2 1 3 2 2 3 2 2 2 3
2 2 2 2 2 2 2 2 2 2 3 4 2 1 -1 -0 1 1 1 1 1 0 1 2 2 3 2 1 1 1 1 2 3 2 3 3 1 2 2 2 2 1 2 2 1 1 0
2 2 2 2 2 2 2 2 2 2 2 3 2 2 -0 -2 0 1 1 1 -1 -1 -2 1 2 2 1 1 2 2 2 2 2 2 3 3 1 1 2 2 3 1 1 3 2 1 -2
2 2 2 2 2 2 2 2 2 2 2 2 2 2 1 -4 -1 -0 -1 -0 -0 -1 -1 -1 -0 0 1 1 2 2 1 1 0 0 1 1 1 1 1 1 1 -2 0 3 1 -2 -3
2 2 2 2 1 1 2 2 2 2 2 2 2 2 1 -5 -2 1 1 -0 -0 -1 -1 -1 -1 -1 -2 -0 1 1 -1 1 -0 1 1 0 -1 -1 0 -0 0 -3 -0 -1 -5 -4 -3
1 1 1 1 1 1 1 2 2 2 2 1 2 1 1 1 -1 1 1 1 1 2 -1 -2 -1 -1 -1 -2 -1 0 0 -0 -1 -1 1 -1 -3 -1 -1 -2 -4 -3 -4 -4 -4 -5 -5
Height
845 844 843 841 839 836 833 830 827 825 822 820 817 815 812 809 806 802 800 797 794 792 789 788 787 787 787 787 785 782 783 783 783 782 782 782 785 787 790 792 791 791 787 785 782 784 784
847 845 843 841 839 837 833 830 827 824 821 819 816 813 810 807 804 801 798 796 793 790 788 786 786 786 787 790 783 783 783 783 784 784 785 785 787 786 789 789 790 788 788 787 783 782 781
848 846 844 841 839 836 833 830 827 824 821 818 815 811 808 805 802 799 796 794 791 788 787 786 785 786 788 787 783 783 784 784 784 785 786 787 786 788 790 790 788 787 792 785 778 776 778
848 846 844 842 840 837 834 830 827 824 821 817 813 809 806 803 800 797 794 791 788 786 786 786 786 787 787 784 784 784 784 785 786 786 787 787 787 788 790 790 791 793 794 794 774 778 775
848 847 845 843 840 837 834 830 827 824 821 817 812 808 804 801 798 795 792 789 787 786 786 786 787 787 787 784 784 784 785 785 786 787 787 788 788 792 792 798 801 800 802 800 789 777 777
848 847 845 843 840 837 834 830 827 824 820 815 810 807 803 799 796 793 790 787 786 786 787 788 789 791 786 785 784 784 785 787 787 788 789 790 796 799 804 804 806 797 802 796 793 776 779
849 847 845 843 840 837 833 830 827 823 818 813 809 804 801 798 795 792 789 787 790 790 787 786 789 787 785 784 784 785 784 786 787 790 794 793 799 799 792 795 787 787 792 792 784 775 778
849 848 846 843 840 837 833 830 826 821 817 812 807 803 799 796 794 792 791 794 801 802 797 786 786 786 784 784 786 785 786 790 791 795 795 800 799 783 784 787 791 792 795 794 782 776 782
848 847 846 843 840 837 833 829 825 820 816 811 805 801 798 795 794 794 795 800 800 800 803 790 784 782 783 785 786 785 786 789 791 795 796 798 781 779 781 782 787 788 791 788 785 776 776
849 847 846 843 840 837 833 828 824 820 814 809 804 801 798 796 798 797 798 799 800 800 812 790 787 785 784 784 788 784 786 788 790 791 793 795 781 778 781 784 785 791 779 778 780 784 794
849 848 845 843 840 836 832 828 823 818 813 808 805 803 800 797 799 801 804 800 799 800 838 789 788 785 785 789 788 787 786 787 790 787 791 784 778 778 782 778 778 778 770 776 776 784 790
849 848 846 843 840 836 831 827 822 817 812 808 806 803 801 801 802 803 801 800 800 822 834 792 789 789 788 788 787 789 789 789 788 790 789 787 779 776 772 766 770 766 770 778 790 792 808
851 848 846 843 840 835 831 826 821 815 811 808 807 806 803 803 805 803 801 802 825 838 799 803 801 796 796 788 786 791 794 795 795 798 792 783 777 769 766 768 767 768 780 805 804 808 785
850 848 846 843 840 835 830 825 820 815 811 808 806 806 805 804 803 801 801 810 820 812 807 805 802 802 799 798 788 791 795 799 791 791 800 803 778 769 764 766 767 775 780 801 781 797 774
850 848 846 843 839 835 830 825 819 814 810 807 806 806 806 806 804 802 808 840 825 813 813 814 804 802 803 798 802 797 796 795 788 792 791 798 784 764 764 761 763 769 778 766 771 780 806
850 849 847 843 840 835 830 825 819 813 809 808 807 807 807 805 803 803 820 821 815 813 814 812 811 808 808 811 807 803 800 801 804 797 793 787 791 766 760 761 761 765 762 775 784 773 774
850 849 847 844 840 835 831 826 819 813 810 808 808 811 808 804 803 811 831 823 817 816 815 815 815 816 815 818 811 810 803 815 816 805 799 791 793 773 766 768 763 770 770 767 770 774 760
850 849 847 844 841 837 833 826 819 814 810 808 809 818 809 804 818 833 829 828 821 820 822 820 820 823 825 827 825 816 809 822 824 819 822 807 803 799 771 762 756 755 759 763 772 760 771
852 849 848 845 843 838 833 827 821 816 812 811 818 820 812 808 830 839 834 829 828 831 834 830 825 828 835 833 833 822 823 823 824 825 827 819 805 803 775 764 756 756 756 756 763 761 761
852 850 849 847 844 839 834 830 824 817 813 813 821 828 827 824 839 839 839 839 838 837 838 838 838 837 839 843 837 835 830 825 825 824 818 815 806 795 788 773 778 770 767 765 769 772 765
853 851 851 849 847 842 837 831 825 818 815 815 829 845 845 849 847 850 845 847 846 847 842 843 843 849 850 849 845 842 837 832 827 825 826 825 824 810 797 792 790 779 770 768 768 763 761
852 852 853 851 848 844 841 836 828 821 818 821 838 843 848 853 850 850 854 859 852 855 851 848 852 852 850 850 848 845 845 843 836 826 825 821 820 809 803 791 783 771 768 769 765 763 758
853 854 854 852 849 846 843 841 834 828 822 830 839 842 845 855 856 856 861 858 855 855 850 849 852 853 850 845 845 840 836 830 826 829 828 829 822 818 808 798 786 782 789 780 789 790 785
854 855 853 853 852 849 847 845 842 838 836 836 840 842 848 856 856 856 857 858 856 857 857 850 851 852 845 841 838 833 831 824 823 823 826 829 820 814 807 800 805 803 793 794 796 797 794
855 856 855 855 854 851 849 849 848 845 844 842 843 843 851 859 858 858 858 857 858 857 855 852 848 845 842 841 840 834 829 821 816 819 813 811 812 807 801 795 796 800 801 801 802 806 808
856 857 858 857 855 853 853 853 852 850 849 847 847 848 850 862 859 856 858 859 862 862 861 851 846 843 842 841 837 834 832 825 822 819 809 808 813 813 799 794 784 811 803 788 790 805 819
856 858 858 857 857 856 855 855 854 853 852 852 851 851 852 862 857 857 861 861 859 862 862 857 852 847 843 843 837 832 833 832 834 834 823 819 814 813 809 806 805 825 809 789 800 828 826
856 856 858 857 858 857 856 857 855 855 855 855 855 855 855 860 855 853 854 856 858 859 859 854 855 852 852 848 840 838 847 833 838 829 823 827 829 826 816 819 809 829 810 818 844 835 832
855 857 858 858 857 857 857 857 857 856 856 855 855 856 856 856 854 852 850 850 851 850 852 854 853 851 849 856 848 841 838 838 840 837 825 833 848 836 835 831 846 841 843 845 843 838 834
Wind_Speed
8 7 8 11 12 13 13 14 14 15 16 16 16 16 16 16 16 17 18 16 15 17 15 11 7 5 1 1 5 3 3 1 3 3 6 3 4 2 2 1 4 2 3 2 5 6 6
7 8 10 11 11 12 13 14 15 16 16 17 16 16 16 17 17 18 19 18 17 18 11 6 3 2 0 1 1 3 2 2 5 5 5 5 2 2 3 3 3 2 4 7 7 3 4
7 8 10 10 11 12 14 15 16 17 17 18 18 17 17 17 17 18 20 19 18 13 7 3 1 1 2 5 1 3 1 3 4 3 3 2 1 1 2 1 2 2 6 8 6 3 5
7 9 10 11 12 14 15 16 17 18 19 19 20 19 19 18 18 18 19 19 17 5 4 0 1 2 4 2 1 3 2 1 3 5 4 2 2 3 1 3 3 3 2 3 1 4 1
7 9 10 11 13 14 15 17 18 19 20 21 21 20 19 18 18 18 19 19 6 2 1 3 2 2 5 0 1 3 4 1 3 3 4 3 3 2 2 3 4 3 3 4 8 6 3
8 9 10 12 13 15 16 17 19 20 21 22 22 21 20 19 17 16 17 10 2 1 2 1 1 2 1 1 1 2 6 2 2 2 3 4 4 2 2 3 5 4 4 4 6 1 2
8 9 10 12 13 15 17 18 19 20 22 23 23 21 19 17 15 12 14 2 5 2 3 2 1 3 0 1 2 2 4 5 2 4 1 2 2 7 8 7 0 2 4 6 5 5 4
9 9 11 12 14 16 17 19 20 22 23 24 24 20 18 14 9 8 7 5 3 1 6 2 3 3 7 2 2 2 4 3 2 2 2 3 7 5 3 4 6 6 4 8 7 4 7
8 9 11 12 14 16 18 19 21 22 24 26 24 18 15 12 3 8 14 7 4 1 0 6 3 0 1 4 3 3 6 2 3 2 5 5 4 3 4 4 5 4 5 6 9 3 4
7 9 11 13 15 17 19 20 22 23 24 26 21 16 14 7 2 3 4 5 3 1 5 3 2 2 1 2 1 1 7 2 2 3 4 6 4 4 4 6 6 7 8 11 4 2 4
7 9 11 13 15 17 20 21 22 24 25 22 15 15 11 13 3 4 7 7 2 1 4 2 1 1 1 1 1 0 2 1 3 2 3 7 2 4 5 8 8 10 4 4 3 3 3
8 9 12 14 15 18 20 22 23 24 25 18 12 12 11 6 5 5 9 5 1 6 4 4 1 2 3 1 1 1 2 2 1 3 3 8 3 4 8 6 8 1 1 3 4 3 1
7 9 11 13 16 19 21 23 24 25 24 14 7 9 13 7 5 11 7 2 5 5 4 7 4 6 5 4 2 3 2 1 3 3 3 4 5 4 3 2 3 3 4 3 3 1 7
7 9 11 14 16 19 21 24 24 25 23 12 2 5 9 11 9 6 2 5 3 3 2 3 5 7 3 7 2 1 0 3 6 3 1 2 11 5 3 6 5 5 7 5 6 3 5
7 9 12 14 18 20 22 24 25 25 21 10 0 2 7 14 10 5 5 4 3 0 3 6 7 3 4 3 5 6 2 4 3 6 5 3 7 3 5 3 5 2 5 4 2 1 2
7 9 12 15 18 21 23 26 26 25 20 8 1 2 7 16 9 4 5 1 1 2 3 3 1 2 2 5 6 6 2 6 8 6 3 4 6 5 3 1 5 5 3 0 1 3 5
8 10 12 15 18 21 24 26 28 26 21 5 1 3 9 14 4 5 3 1 2 2 5 4 2 4 3 4 3 3 5 5 8 9 6 4 5 8 1 7 8 2 4 4 3 4 6
8 9 12 15 19 21 24 26 29 24 19 4 3 2 13 8 4 2 2 2 5 5 8 4 3 3 3 6 4 3 4 4 12 9 6 4 4 5 12 7 4 3 7 7 4 5 3
7 10 12 15 17 21 24 28 30 21 16 3 2 1 9 7 3 2 4 4 5 8 6 6 4 5 6 4 5 4 5 2 15 11 12 8 4 4 9 5 2 1 2 1 4 2 6
8 10 11 14 17 21 25 27 30 20 11 3 3 2 4 5 2 3 3 3 4 5 3 4 5 5 5 4 3 6 8 5 18 12 19 11 5 8 11 11 2 12 10 10 3 5 5
8 10 11 13 16 20 24 27 30 22 12 4 4 1 2 2 4 4 3 3 3 7 5 7 4 7 3 4 7 6 8 14 5 11 5 3 7 11 19 14 13 12 11 10 8 9 9
9 9 10 13 15 19 23 26 30 27 9 10 3 2 3 2 2 3 5 4 3 3 3 2 3 7 4 4 6 13 9 8 9 10 13 3 11 12 17 16 18 20 15 9 10 7 9
9 8 9 12 14 17 20 23 27 30 14 8 5 4 3 4 2 3 0 2 2 3 2 1 3 3 6 4 8 12 12 16 18 14 17 13 13 12 20 10 14 13 4 3 8 10 4
8 7 9 11 13 15 17 19 22 23 22 13 6 4 3 1 2 2 2 1 1 3 3 6 5 2 4 8 7 7 8 14 12 8 3 4 7 9 10 6 7 5 8 12 13 10 7
7 7 9 9 12 13 15 16 17 18 17 19 10 4 3 2 0 2 1 1 3 4 2 3 3 4 7 5 3 5 4 4 2 6 3 5 2 3 3 7 4 5 9 7 5 7 14
7 6 6 7 10 11 12 14 15 15 11 14 12 8 5 4 3 2 1 2 2 3 6 4 5 8 3 1 2 2 2 3 4 6 4 3 4 0 5 4 2 4 12 17 7 3 14
6 5 6 7 8 8 9 10 11 11 11 7 5 4 4 2 3 4 3 3 3 1 2 4 6 6 3 2 2 3 3 2 3 4 5 4 3 2 4 3 4 10 14 9 4 5 16
5 5 5 5 5 6 8 9 9 9 8 7 2 2 2 2 4 4 4 4 1 1 2 3 4 2 2 2 2 2 1 2 3 4 5 2 4 3 3 3 2 19 5 6 6 10 12
5 3 3 4 4 5 6 9 9 8 7 4 1 4 3 2 4 7 14 16 12 16 3 2 2 1 3 0 2 2 3 1 2 3 5 3 3 3 4 2 8 9 11 8 9 11 13
Wind_Direction
69 48 27 31 25 22 16 9 5 2 359 358 355 353 350 347 346 345 344 338 333 330 325 317 309 326 350 11 255 179 177 71 20 28 45 53 63 109 120 320 336 203 291 288 272 281 255
45 36 39 31 18 13 7 3 360 358 356 353 348 344 342 341 341 340 339 337 335 331 329 320 300 326 121 251 25 181 176 56 35 32 35 33 112 163 136 187 171 232 261 266 272 253 235
36 38 26 23 15 6 3 2 359 357 353 347 344 340 338 336 334 335 335 335 331 326 325 319 252 121 67 236 328 162 136 61 38 52 90 54 84 91 143 291 338 328 322 319 223 195 220
38 27 23 13 11 8 5 2 357 354 351 346 344 340 334 330 330 331 330 331 328 321 328 91 139 106 234 313 229 199 193 89 63 57 77 63 43 95 133 307 18 354 46 350 295 144 259
36 25 18 15 11 9 4 0 356 353 349 346 344 341 334 331 329 328 327 331 345 350 56 126 121 97 287 80 232 258 223 121 122 81 63 94 45 78 37 79 3 4 250 222 316 199 131
36 31 20 15 12 7 3 360 356 351 348 346 344 339 334 332 333 329 330 335 22 104 89 124 86 53 321 343 170 118 176 134 86 63 34 48 45 66 48 98 231 232 242 245 244 236 190
46 33 22 16 10 6 3 359 354 351 349 345 342 338 334 332 335 337 339 346 15 344 39 222 225 265 27 80 126 115 147 137 66 60 43 12 48 226 223 210 255 295 219 251 240 222 210
44 29 21 15 11 6 3 358 354 351 348 344 342 341 340 337 344 360 5 59 45 294 314 304 249 269 251 211 334 222 163 128 137 203 134 16 244 230 216 192 224 232 260 264 288 241 180
48 34 22 16 9 4 360 356 353 350 346 345 345 346 347 346 88 56 73 58 5 333 286 308 264 287 45 156 239 264 148 142 184 198 193 185 228 67 155 212 224 207 204 243 234 348 261
48 40 27 15 7 360 356 355 351 349 348 348 353 358 358 12 104 65 69 14 359 333 48 289 355 9 45 92 272 32 186 156 232 235 194 236 274 232 223 246 167 282 218 252 243 114 246
58 34 23 12 4 359 357 355 353 351 352 353 2 5 7 33 47 52 338 340 344 15 19 305 347 296 39 166 305 34 176 48 241 239 121 254 262 238 226 225 163 235 166 188 194 192 7
52 33 19 9 5 2 359 355 353 352 355 0 9 18 13 25 38 9 332 328 135 46 262 352 341 343 351 145 264 53 50 7 292 305 239 246 301 242 222 221 193 59 14 47 51 117 254
41 32 17 12 6 2 359 355 353 355 356 5 19 25 33 30 340 335 335 44 34 120 296 337 334 358 348 266 267 167 157 272 225 339 288 315 229 258 203 265 177 150 82 311 323 337 232
54 27 24 12 6 2 359 356 355 353 355 1 7 25 25 21 355 349 19 52 95 278 0 346 333 316 254 8 345 44 214 274 246 208 306 237 308 193 176 203 194 182 164 173 239 233 263
42 36 22 12 5 3 1 358 356 356 358 356 22 26 21 2 357 351 72 66 204 21 315 341 323 19 320 11 15 3 239 247 279 185 198 198 266 276 218 218 152 195 183 207 229 123 28
56 39 21 12 8 7 5 1 358 356 360 355 80 84 22 354 353 27 69 129 78 48 337 12 279 19 308 333 353 351 301 12 335 33 6 284 291 221 285 128 252 190 192 154 359 231 239
61 38 22 15 15 10 7 2 358 357 359 5 58 60 353 350 16 49 116 203 5 42 28 10 293 308 315 321 298 266 262 64 348 323 335 304 197 277 336 205 208 222 255 226 176 175 246
63 37 29 21 18 12 9 6 2 358 359 18 81 50 356 8 54 45 89 331 344 6 13 353 51 19 338 347 298 278 278 66 3 353 13 317 285 259 257 254 232 208 224 186 199 254 226
60 48 34 27 17 17 13 11 6 3 3 14 68 326 6 8 98 15 335 4 57 11 24 11 4 50 24 336 313 269 346 110 25 13 3 340 299 311 315 332 34 243 335 348 314 8 217
67 53 40 30 23 20 18 14 9 13 19 63 74 34 348 38 31 93 28 11 13 11 70 357 3 70 25 4 358 307 316 331 340 337 330 349 273 250 244 266 347 292 296 299 237 273 291
80 59 44 34 25 24 21 18 19 15 27 72 31 108 189 16 25 58 68 19 17 4 2 21 93 46 339 283 291 255 324 327 311 304 333 340 267 298 293 301 306 285 275 292 267 258 252
86 64 47 36 29 27 24 22 25 18 30 73 91 90 22 43 12 60 13 20 58 346 289 39 19 321 278 245 260 306 308 295 270 285 258 199 277 297 278 292 284 275 278 277 268 306 277
88 64 46 39 36 33 31 29 31 35 49 79 50 77 93 337 39 81 88 337 30 353 320 231 257 287 268 295 303 276 269 273 267 276 288 282 269 270 274 289 279 282 349 271 86 35 335
91 73 55 43 39 39 37 36 36 45 58 85 66 91 81 85 88 114 138 253 283 322 241 281 306 224 261 311 300 280 262 264 275 285 200 252 265 253 254 299 246 90 49 65 69 42 35
98 73 59 52 44 46 43 41 44 47 59 66 50 72 90 105 125 147 234 280 312 293 259 262 270 259 297 291 281 300 303 328 63 192 254 233 258 256 247 207 119 22 2 327 321 60 22
100 86 67 43 45 50 46 46 49 47 60 64 53 48 80 111 248 108 36 15 321 304 335 270 307 313 318 279 296 268 303 310 316 312 275 325 359 250 329 246 270 25 316 313 212 93 11
112 87 60 54 49 53 46 41 41 42 44 57 48 50 83 107 251 144 192 198 174 202 242 297 316 333 9 342 285 335 283 299 302 301 320 315 319 29 306 319 92 346 324 316 23 352 342
112 85 62 51 48 44 40 37 33 31 28 28 100 73 13 143 273 225 204 163 254 173 227 281 353 330 359 344 295 318 273 297 299 278 309 358 323 327 314 308 331 353 8 53 337 315 329
111 95 60 45 47 26 29 21 16 6 345 342 164 217 275 254 244 289 276 264 243 239 166 241 212 245 239 87 274 304 271 280 215 280 349 11 355 298 7 34 28 39 70 32 344 329 330